[[{"header":{"parameterUnit":"m.s-1","parameterCategory":2,"la1":30.2991,"la2":30.254,"lo1":-89.0895,"lo2":-89.0444,"dy":0.0017,"dx":0.0017,"nx":28,"ny":28,"refTime":"2025-07-22T09:00:00:Z","depth":"0","parameterNumber":2,"parameterNumberName":"U-component_of_CURRENTS"},"data":[0,0,0,0,0,0,0,0,0,0,0,0,0,0,0,0,0,0,0,0,0,0,0,0,0,0,0,0,0,0,0,0,0,0,0,0,0,0,0,0,0,0,0,0,0,0,0,0,0,0,0,0,0,0,0,0,0,0,-0.1072,-0.1073,0,-0.1146,-0.1147,-0.1148,-0.1176,-0.1176,-0.1176,-0.1176,-0.1197,-0.1198,-0.1198,0,0,0,0,0,0,0,0,0,0,0,0,0,-0.0943,-0.0945,-0.1072,-0.1073,-0.1074,-0.1146,-0.1147,-0.1148,-0.1176,-0.1176,-0.1176,-0.1176,-0.1197,-0.1198,-0.1198,0,0,0,0,0,0,0,0,0,0,0,0,0,-0.1004,-0.0946,-0.1071,-0.1098,-0.1101,-0.1146,-0.1147,-0.1148,-0.1176,-0.1176,-0.1176,-0.1176,-0.1197,-0.1197,-0.1198,-0.1205,0,0,-0.1201,-0.1202,0,0,0,0,0,0,0,0,-0.1001,-0.1009,-0.1093,-0.1096,-0.11,-0.1154,-0.111,-0.1165,-0.1176,-0.1146,-0.1176,-0.1176,-0.1179,-0.1181,-0.1193,-0.1206,-0.1207,-0.1201,-0.1202,-0.1202,-0.1202,0,0,0,0,0,0,0,-0.0997,-0.1006,-0.1099,-0.1094,-0.1099,-0.1103,-0.1111,-0.112,-0.1159,-0.1148,-0.1151,-0.1163,-0.118,-0.1193,-0.1194,-0.1208,-0.1201,-0.1202,-0.1203,-0.1203,-0.1231,-0.1232,0,0,0,0,0,0,-0.0992,-0.1002,-0.1097,-0.1102,-0.1051,-0.1105,-0.1115,-0.1135,-0.116,-0.1165,-0.1163,-0.1164,-0.1191,-0.1193,-0.1195,-0.1196,-0.1202,-0.1203,-0.1203,-0.1231,-0.1232,-0.1232,0,0,0,0,0,0,-0.0989,-0.1,-0.1094,-0.1054,-0.1067,-0.1108,-0.113,-0.1137,-0.1151,-0.1172,-0.1176,-0.1171,-0.1191,-0.1194,-0.1206,-0.1197,-0.1203,-0.1204,-0.1231,-0.1231,-0.1232,-0.1204,0,0,0,0,0,0,-0.0986,-0.0999,-0.1005,-0.1054,-0.1069,-0.1119,-0.1131,-0.1138,-0.1159,-0.1161,-0.118,-0.1182,-0.1191,-0.1205,-0.1207,-0.1199,-0.1205,-0.1231,-0.1231,-0.1232,-0.1205,-0.1203,-0.1202,0,0,0,0,0,-0.0981,-0.0985,-0.1005,-0.1016,-0.1079,-0.112,-0.1127,-0.1154,-0.116,-0.1166,-0.1181,-0.1182,-0.1209,-0.1206,-0.1208,-0.12,-0.1231,-0.1231,-0.1232,-0.1205,-0.1204,-0.1202,0,0,0,0,0,0,-0.0929,-0.0991,-0.1013,-0.1036,-0.1077,-0.1125,-0.1129,-0.1154,-0.1172,-0.117,-0.1187,-0.119,-0.1197,-0.1207,-0.1203,-0.1211,-0.1219,-0.122,-0.1198,-0.1197,-0.1196,-0.1181,-0.1206,0,0,0,0,0,-0.0923,-0.0939,-0.1005,-0.1018,-0.1039,-0.1085,-0.1102,-0.1128,-0.1156,-0.1164,-0.118,-0.1193,-0.1202,-0.1206,-0.1217,-0.1222,-0.1214,-0.1219,-0.1218,-0.1216,-0.1208,-0.1209,-0.1207,-0.1233,-0.1233,-0.1233,0,0,-0.0903,-0.0939,-0.0947,-0.1007,-0.1036,-0.1066,-0.1094,-0.1122,-0.114,-0.1162,-0.1176,-0.1189,-0.1203,-0.1209,-0.1213,-0.1215,-0.12,-0.1217,-0.1216,-0.1208,-0.1209,-0.1206,-0.1204,-0.1234,-0.1234,-0.1234,0,0,-0.0865,-0.0908,-0.091,-0.095,-0.1003,-0.1041,-0.1051,-0.1107,-0.1124,-0.1149,-0.1163,-0.117,-0.1194,-0.1197,-0.1201,-0.12,-0.1195,-0.1208,-0.1187,-0.1189,-0.1186,-0.1184,-0.1146,-0.114,-0.1206,-0.1206,-0.1206,0,-0.0835,-0.0862,-0.0914,-0.0935,-0.0967,-0.1029,-0.1049,-0.1078,-0.1128,-0.1139,-0.1148,-0.1175,-0.1183,-0.1184,-0.1183,-0.1194,-0.1187,-0.1189,-0.1185,-0.1183,-0.1181,-0.1143,-0.1137,-0.1205,-0.1205,-0.1205,-0.1205,0,-0.0808,-0.0837,-0.0842,-0.0895,-0.0934,-0.0961,-0.1026,-0.1052,-0.1084,-0.1112,-0.1127,-0.1143,-0.1156,-0.1161,-0.117,-0.1161,-0.1156,-0.1183,-0.1184,-0.1176,-0.1137,-0.1131,-0.1203,-0.1203,-0.1204,-0.1204,0,0,-0.0713,-0.0807,-0.0804,-0.0847,-0.0923,-0.0962,-0.0987,-0.1038,-0.1051,-0.1088,-0.1093,-0.1108,-0.1119,-0.1125,-0.1137,-0.1136,-0.1104,-0.1152,-0.1152,-0.1104,-0.108,-0.0792,-0.0759,-0.1139,-0.1139,-0.1138,-0.1048,0,-0.0674,-0.072,-0.0768,-0.0817,-0.0862,-0.0933,-0.0956,-0.1007,-0.104,-0.1058,-0.1076,-0.1083,-0.1106,-0.1104,-0.1109,-0.111,-0.1094,-0.1124,-0.1103,-0.1101,-0.0839,-0.0744,-0.04,-0.0265,-0.1042,-0.1041,-0.1041,0,-0.0623,-0.0676,-0.0728,-0.0822,-0.0842,-0.0883,-0.0951,-0.0978,-0.1013,-0.1025,-0.1037,-0.1049,-0.1042,-0.1068,-0.1054,-0.1076,-0.107,-0.107,-0.1067,-0.0802,-0.0802,-0.0405,-0.0226,-0.0133,-0.1032,-0.1033,-0.1034,0,-0.0565,-0.0638,-0.0693,-0.0731,-0.0842,-0.0877,-0.0925,-0.0974,-0.098,-0.1005,-0.0975,-0.1005,-0.0966,-0.1005,-0.0963,-0.1027,-0.0922,-0.1018,-0.0751,-0.0732,-0.0429,-0.0381,-0.0141,-0.1,-0.1,-0.1001,-0.1001,0,-0.0521,-0.0557,-0.0686,-0.0731,-0.0803,-0.0867,-0.091,-0.0954,-0.0954,-0.0881,-0.0954,-0.0842,-0.0946,-0.0883,-0.0926,-0.075,-0.0884,-0.0695,-0.0669,-0.0403,-0.0356,-0.0257,-0.03,-0.0997,-0.0998,-0.0999,-0.0999,0,-0.0475,-0.0533,-0.064,-0.0769,-0.0798,-0.0872,-0.0924,-0.0898,-0.0911,-0.0806,-0.0791,-0.072,-0.0559,-0.0614,-0.0602,-0.0606,-0.0445,-0.0465,-0.0107,-0.0036,0.031,0.0255,0.028,0.0299,-0.0169,-0.0161,-0.0155,0,-0.0451,-0.0514,-0.0697,-0.0733,-0.0803,-0.0881,-0.0868,-0.0901,-0.0815,-0.065,-0.0532,-0.037,-0.0115,0.0015,0.0076,0.0125,-0.0051,0.0376,0.0326,0.0456,0.0406,0.012,0.0106,0.0717,0.073,0.0741,0.075,0,-0.0477,-0.0573,-0.0683,-0.073,-0.0761,-0.0747,-0.0708,-0.0635,-0.0529,-0.0384,-0.0039,0.0171,0.0455,0.0779,0.0842,0.0849,0.0502,0.0608,0.0633,0.1082,0.0888,0.0882,0.0515,0.0847,0.0837,0.083,0.0825,0.0821,-0.0527,-0.0608,-0.0707,-0.0723,-0.07,-0.0506,-0.0425,-0.0266,-0.0047,0.0287,0.042,0.08,0.1221,0.1474,0.1462,0.1681,0.1282,0.1675,0.1581,0.1259,0.1357,0.126,0.1688,0.1683,0.1679,0.1676,0.1672,0,-0.0573,-0.0599,-0.063,-0.059,-0.0416,-0.0431,-0.0204,-0.0036,0.0327,0.0629,0.0963,0.1538,0.2029,0.2192,0.2536,0.2589,0.2322,0.2554,0.2228,0.2148,0.2062,0.2197,0.2893,0.2893,0.2892,0.2892,0.2892,0.2892,-0.0597,-0.0612,-0.0571,-0.0268,-0.0182,0.0104,0.0275,0.0487,0.0717,0.1198,0.151,0.1713,0.2087,0.2758,0.3084,0.3108,0.2839,0.292,0.2604,0.2631,0.2538,0.2448,0.2569,0.3331,0.3331,0.2721,0.2718,0.2715]},{"header":{"parameterUnit":"m.s-1","parameterCategory":2,"la1":30.2991,"la2":30.254,"lo1":-89.0895,"lo2":-89.0444,"dy":0.0017,"dx":0.0017,"nx":28,"ny":28,"refTime":"2025-07-22T09:00:00:Z","depth":"0","parameterNumber":3,"parameterNumberName":"V-component_of_CURRENTS"},"data":[0,0,0,0,0,0,0,0,0,0,0,0,0,0,0,0,0,0,0,0,0,0,0,0,0,0,0,0,0,0,0,0,0,0,0,0,0,0,0,0,0,0,0,0,0,0,0,0,0,0,0,0,0,0,0,0,0,0,-0.163,-0.163,0,-0.1584,-0.1583,-0.1582,-0.1518,-0.1517,-0.1516,-0.1515,-0.1437,-0.1436,-0.1435,0,0,0,0,0,0,0,0,0,0,0,0,0,-0.1584,-0.1585,-0.163,-0.163,-0.163,-0.1584,-0.1583,-0.1582,-0.1518,-0.1517,-0.1516,-0.1515,-0.1438,-0.1436,-0.1434,0,0,0,0,0,0,0,0,0,0,0,0,0,-0.1574,-0.1585,-0.163,-0.1595,-0.1591,-0.1584,-0.1583,-0.1582,-0.1518,-0.1517,-0.1516,-0.1515,-0.1438,-0.1436,-0.1434,-0.1445,0,0,-0.1428,-0.1427,0,0,0,0,0,0,0,0,-0.1575,-0.1575,-0.16,-0.1597,-0.1593,-0.1558,-0.1538,-0.1536,-0.1518,-0.1542,-0.1515,-0.1514,-0.1478,-0.1473,-0.1462,-0.1441,-0.1438,-0.1428,-0.1427,-0.1426,-0.1425,0,0,0,0,0,0,0,-0.1576,-0.1577,-0.1608,-0.16,-0.1596,-0.1554,-0.1552,-0.1537,-0.1514,-0.154,-0.1536,-0.1537,-0.1475,-0.1464,-0.146,-0.1437,-0.1428,-0.1426,-0.1425,-0.1424,-0.1433,-0.1434,0,0,0,0,0,0,-0.1594,-0.1578,-0.161,-0.1607,-0.1585,-0.1557,-0.1554,-0.1568,-0.1514,-0.1507,-0.1538,-0.1534,-0.1468,-0.1462,-0.1457,-0.1492,-0.1426,-0.1424,-0.1423,-0.1431,-0.1433,-0.1435,0,0,0,0,0,0,-0.1594,-0.1598,-0.1612,-0.1593,-0.1592,-0.156,-0.1575,-0.1568,-0.1553,-0.1514,-0.1504,-0.1531,-0.1467,-0.1459,-0.1451,-0.1487,-0.1423,-0.1421,-0.143,-0.1432,-0.1434,-0.1545,0,0,0,0,0,0,-0.1593,-0.1599,-0.1612,-0.1595,-0.1594,-0.1618,-0.1577,-0.1568,-0.1558,-0.1552,-0.1506,-0.1497,-0.1465,-0.1454,-0.1449,-0.1483,-0.1419,-0.1428,-0.1431,-0.1433,-0.154,-0.1551,-0.1561,0,0,0,0,0,-0.1592,-0.1621,-0.1613,-0.1617,-0.1616,-0.1619,-0.1615,-0.1583,-0.1559,-0.1563,-0.1532,-0.1498,-0.1468,-0.1454,-0.1447,-0.1482,-0.1426,-0.143,-0.1433,-0.1535,-0.1549,-0.156,0,0,0,0,0,0,-0.1609,-0.1617,-0.1608,-0.1638,-0.1633,-0.161,-0.1615,-0.159,-0.1568,-0.1562,-0.1513,-0.1504,-0.1511,-0.1481,-0.1466,-0.1492,-0.1443,-0.1445,-0.1523,-0.1536,-0.1546,-0.1557,-0.1418,0,0,0,0,0,-0.1622,-0.1648,-0.164,-0.1667,-0.1668,-0.1641,-0.1637,-0.1619,-0.1599,-0.1587,-0.1558,-0.1532,-0.1521,-0.1515,-0.1496,-0.1511,-0.1462,-0.1529,-0.154,-0.1549,-0.1553,-0.152,-0.1527,-0.1445,-0.1445,-0.1445,0,0,-0.1639,-0.1646,-0.1662,-0.1673,-0.1666,-0.1682,-0.1635,-0.1642,-0.1655,-0.1585,-0.1595,-0.1565,-0.1531,-0.1547,-0.1548,-0.1526,-0.1545,-0.1553,-0.1561,-0.156,-0.1524,-0.1532,-0.1539,-0.1448,-0.1447,-0.1447,0,0,-0.1691,-0.1693,-0.173,-0.1727,-0.1728,-0.1717,-0.1722,-0.1705,-0.1696,-0.1708,-0.166,-0.1652,-0.1638,-0.162,-0.1609,-0.1666,-0.1599,-0.1664,-0.173,-0.1699,-0.1705,-0.171,-0.165,-0.1649,-0.1674,-0.1674,-0.1674,0,-0.1705,-0.1746,-0.1739,-0.1765,-0.1763,-0.1738,-0.176,-0.1763,-0.1745,-0.1735,-0.1729,-0.1696,-0.1677,-0.1677,-0.171,-0.1691,-0.1649,-0.1687,-0.1712,-0.1716,-0.1719,-0.1656,-0.1654,-0.168,-0.1679,-0.1678,-0.1678,0,-0.1786,-0.18,-0.1821,-0.1847,-0.185,-0.1864,-0.1862,-0.1865,-0.1855,-0.1844,-0.1841,-0.1816,-0.1779,-0.1797,-0.1782,-0.1796,-0.1749,-0.1726,-0.1681,-0.1734,-0.1664,-0.166,-0.1688,-0.1686,-0.1684,-0.1683,0,0,-0.1851,-0.1869,-0.1878,-0.1855,-0.1882,-0.1871,-0.1922,-0.1923,-0.1888,-0.1931,-0.1893,-0.194,-0.1895,-0.188,-0.1848,-0.1858,-0.1858,-0.182,-0.1816,-0.1761,-0.1766,-0.1653,-0.1635,-0.184,-0.1841,-0.1841,-0.1705,0,-0.1903,-0.1937,-0.1954,-0.196,-0.1951,-0.1942,-0.1951,-0.1951,-0.1941,-0.19,-0.1922,-0.1863,-0.1934,-0.1872,-0.1919,-0.1841,-0.1852,-0.1896,-0.1722,-0.1716,-0.161,-0.1629,-0.1472,-0.1332,-0.17,-0.1699,-0.1698,0,-0.198,-0.1968,-0.1992,-0.1926,-0.1922,-0.1925,-0.1874,-0.1874,-0.1853,-0.1831,-0.1843,-0.1815,-0.1831,-0.1855,-0.1848,-0.1869,-0.1843,-0.1818,-0.181,-0.1662,-0.1594,-0.1339,-0.1308,-0.1367,-0.169,-0.169,-0.1691,0,-0.198,-0.1985,-0.1984,-0.1976,-0.1928,-0.1911,-0.1874,-0.1846,-0.1753,-0.1746,-0.1643,-0.1728,-0.1627,-0.1711,-0.1703,-0.1757,-0.1659,-0.17,-0.1584,-0.1574,-0.1383,-0.1356,-0.1386,-0.1697,-0.1698,-0.1698,-0.1698,0,-0.2012,-0.1997,-0.196,-0.1938,-0.1845,-0.1846,-0.1723,-0.1708,-0.16,-0.142,-0.1559,-0.1398,-0.1579,-0.1545,-0.1646,-0.1578,-0.1605,-0.1588,-0.1535,-0.1416,-0.1394,-0.1389,-0.1419,-0.1693,-0.1694,-0.1695,-0.1696,0,-0.2016,-0.202,-0.1954,-0.1881,-0.1833,-0.1752,-0.1549,-0.1405,-0.137,-0.1132,-0.1095,-0.1088,-0.1052,-0.1223,-0.1264,-0.1373,-0.14,-0.1362,-0.1204,-0.1137,-0.1128,-0.1168,-0.1219,-0.1282,-0.1234,-0.123,-0.1227,0,-0.2015,-0.2007,-0.1874,-0.1741,-0.169,-0.1541,-0.1368,-0.1288,-0.1093,-0.0882,-0.0708,-0.0652,-0.0524,-0.0609,-0.0836,-0.0991,-0.1162,-0.0938,-0.1043,-0.1099,-0.1105,-0.1292,-0.1359,-0.0826,-0.082,-0.0815,-0.0811,0,-0.1976,-0.1948,-0.1859,-0.1568,-0.1372,-0.1135,-0.0894,-0.072,-0.0552,-0.037,-0.0074,0.0023,-0.0058,-0.0116,-0.0379,-0.053,-0.0974,-0.0837,-0.0932,-0.082,-0.0984,-0.1023,-0.0944,-0.0767,-0.0772,-0.0775,-0.0777,-0.0779,-0.1909,-0.1792,-0.1608,-0.1315,-0.1058,-0.068,-0.0434,-0.0199,0.0117,0.046,0.0461,0.0697,0.054,0.0206,-0.0088,-0.0443,-0.0609,-0.0518,-0.0565,-0.0759,-0.0823,-0.0642,-0.0393,-0.0395,-0.0397,-0.0398,-0.04,0,-0.1738,-0.1567,-0.1305,-0.09,-0.0508,-0.0447,-0.0032,0.0229,0.0619,0.0854,0.1091,0.1309,0.1093,0.0685,0.0241,-0.0073,-0.0424,-0.0267,-0.0499,-0.059,-0.0405,-0.0389,-0.0081,-0.0081,-0.0081,-0.0081,-0.0081,-0.008,-0.1613,-0.131,-0.1121,-0.0421,-0.0129,0.0412,0.067,0.0926,0.1149,0.1566,0.1809,0.1922,0.1809,0.0984,0.0353,0.0107,-0.0282,-0.0335,-0.058,-0.0409,-0.044,-0.0469,-0.0468,-0.0182,-0.0182,-0.0793,-0.0797,-0.0799]}],[{"header":{"parameterUnit":"m.s-1","parameterCategory":2,"la1":30.2991,"la2":30.254,"lo1":-89.0895,"lo2":-89.0444,"dy":0.0017,"dx":0.0017,"nx":28,"ny":28,"refTime":"2025-07-22T09:00:00:Z","depth":"2","parameterNumber":2,"parameterNumberName":"U-component_of_CURRENTS"},"data":[0,0,0,0,0,0,0,0,0,0,0,0,0,0,0,0,0,0,0,0,0,0,0,0,0,0,0,0,0,0,0,0,0,0,0,0,0,0,0,0,0,0,0,0,0,0,0,0,0,0,0,0,0,0,0,0,0,0,-0.0045,-0.0044,0,0.0017,0.0018,0.0018,-0.0029,-0.003,-0.0032,-0.0033,-0.009,-0.009,-0.009,0,0,0,0,0,0,0,0,0,0,0,0,0,-0.0212,-0.0209,-0.0045,-0.0043,-0.0042,0.0017,0.0018,0.0018,-0.0029,-0.003,-0.0032,-0.0034,-0.009,-0.009,-0.009,0,0,0,0,0,0,0,0,0,0,0,0,0,-0.015,-0.0208,-0.0045,-0.0054,-0.0053,0.0017,0.0018,0.0018,-0.0028,-0.003,-0.0033,-0.0035,-0.009,-0.009,-0.009,-0.0047,0,0,-0.0091,-0.0091,0,0,0,0,0,0,0,0,-0.0153,-0.0144,-0.0054,-0.0053,-0.0052,-0.001,-0.0062,-0.0008,-0.0028,-0.0044,-0.0033,-0.0036,-0.0069,-0.0071,-0.0061,-0.005,-0.0052,-0.0091,-0.0091,-0.0091,-0.0091,0,0,0,0,0,0,0,-0.0157,-0.0147,-0.0026,-0.0052,-0.0051,-0.0063,-0.0057,-0.0052,-0.0052,-0.0043,-0.0045,-0.0027,-0.0071,-0.0061,-0.0063,-0.0053,-0.0091,-0.0091,-0.0091,-0.0091,-0.0035,-0.0033,0,0,0,0,0,0,-0.0149,-0.015,-0.0028,-0.0024,-0.0102,-0.0058,-0.0052,-0.0027,-0.0049,-0.0052,-0.0025,-0.0029,-0.0059,-0.0063,-0.0065,-0.0065,-0.0091,-0.0091,-0.0092,-0.0036,-0.0035,-0.0033,0,0,0,0,0,0,-0.0153,-0.0138,-0.0031,-0.0082,-0.0069,-0.0052,-0.0024,-0.0024,-0.0021,-0.0033,-0.0041,-0.0022,-0.0061,-0.0065,-0.0056,-0.0066,-0.0091,-0.0092,-0.0038,-0.0036,-0.0034,-0.0033,0,0,0,0,0,0,-0.0158,-0.014,-0.0123,-0.0081,-0.0065,-0.0003,-0.0021,-0.0021,-0.0003,-0.0009,-0.0033,-0.004,-0.0063,-0.0056,-0.0057,-0.0067,-0.0092,-0.004,-0.0037,-0.0034,-0.0035,-0.0031,-0.0027,0,0,0,0,0,-0.0164,-0.0134,-0.0123,-0.0108,-0.0041,-0.0002,0.0003,0.0003,-0.0001,-0.0002,-0.0004,-0.004,-0.0038,-0.0054,-0.0055,-0.0066,-0.0042,-0.0038,-0.0035,-0.0037,-0.0031,-0.0027,0,0,0,0,0,0,-0.0197,-0.0133,-0.0121,-0.0073,-0.0045,-0.0009,0.0003,0.0012,0.0014,0.0007,-0.0013,-0.0019,-0.0017,-0.0023,-0.004,-0.0035,-0.0047,-0.0044,-0.0048,-0.0044,-0.004,-0.0044,-0.0092,0,0,0,0,0,-0.0191,-0.0152,-0.0104,-0.0064,-0.0049,-0.0019,-0.0002,0.0002,0.0018,0.0016,0.0007,0.0004,0.0004,-0.0007,-0.0006,0.0003,0.0015,-0.0002,0.0001,0.0004,0.0004,0.0008,0.0011,-0.0021,-0.0021,-0.0021,0,0,-0.0185,-0.0148,-0.0122,-0.0068,-0.0044,-0.0019,-0.0017,0.0012,0.0024,0.0011,0.0021,0.002,0.0014,0.0016,0.0015,0.0002,0.0032,0.0009,0.0011,0.0009,0.0012,0.0014,0.0017,-0.0018,-0.0019,-0.0019,0,0,-0.0159,-0.0127,-0.0092,-0.0071,-0.0031,-0.0015,-0.0005,0.0031,0.003,0.0055,0.0046,0.0049,0.0052,0.0042,0.0038,0.0074,0.0058,0.007,0.0072,0.0075,0.0077,0.0078,0.0142,0.0148,0.0063,0.0063,0.0063,0,-0.0155,-0.0115,-0.0078,-0.005,-0.0042,-0.0013,0.0003,0.0025,0.0057,0.0053,0.0053,0.0068,0.0064,0.006,0.0071,0.0077,0.0096,0.0045,0.0077,0.0078,0.0079,0.0143,0.0151,0.0063,0.0063,0.0063,0.0063,0,-0.0105,-0.009,-0.0071,-0.003,-0.0014,0.0001,0.0033,0.0044,0.0052,0.0065,0.0071,0.0082,0.0075,0.0084,0.0087,0.0093,0.0113,0.0083,0.0054,0.0082,0.015,0.0157,0.0064,0.0064,0.0064,0.0063,0,0,-0.0052,-0.0043,-0.0035,-0.0068,-0.0017,-0.0021,0.0019,0.0032,0.0029,0.0063,0.006,0.0081,0.0076,0.0076,0.0078,0.0094,0.0142,0.0093,0.0093,0.014,0.0193,0.0366,0.0391,0.0103,0.0103,0.0104,0.0252,0,-0.0034,-0.0045,-0.0009,-0.0032,-0.0061,-0.003,-0.0009,0.0008,0.0027,0.0037,0.0058,0.0057,0.0075,0.0061,0.0084,0.013,0.0156,0.0108,0.0173,0.0177,0.0312,0.0403,0.022,0.0349,0.0259,0.026,0.0261,0,0.0005,-0.0032,-0.0075,-0.0121,-0.012,-0.0119,-0.0133,-0.0106,-0.0059,-0.0042,-0.0021,0.0007,0.0054,0.0049,0.0145,0.0111,0.015,0.0192,0.0197,0.0357,0.0363,0.03,0.0366,0.0274,0.0273,0.0272,0.0271,0,-0.0074,-0.0076,-0.015,-0.0161,-0.0184,-0.0203,-0.0198,-0.0156,-0.0125,-0.0106,-0.0069,-0.0027,0.0011,0.0062,0.0198,0.0148,0.033,0.0258,0.0455,0.0469,0.033,0.0333,0.03,0.03,0.03,0.0299,0.0299,0,-0.0112,-0.0167,-0.0214,-0.0278,-0.0329,-0.0314,-0.0332,-0.0308,-0.0239,-0.0142,-0.0138,-0.0025,0.0011,0.0145,0.0215,0.0426,0.0344,0.0497,0.0523,0.0338,0.034,0.0268,0.0262,0.0305,0.0304,0.0303,0.0302,0,-0.0211,-0.0232,-0.0329,-0.0388,-0.039,-0.0445,-0.0388,-0.0336,-0.0319,-0.0181,-0.0163,-0.0024,0.0177,0.0273,0.0407,0.0483,0.0628,0.07,0.0538,0.0546,0.075,0.0743,0.0917,0.0925,0.0931,0.0936,0.0941,0,-0.0281,-0.0355,-0.0428,-0.041,-0.0439,-0.0476,-0.0408,-0.0385,-0.0271,-0.0103,0.0022,0.0182,0.0425,0.0691,0.0803,0.0972,0.0863,0.0868,0.0743,0.0809,0.0815,0.0798,0.0783,0.0555,0.0556,0.0557,0.0557,0,-0.0418,-0.044,-0.0477,-0.0425,-0.0389,-0.0348,-0.026,-0.0199,-0.0059,0.0051,0.0339,0.0509,0.0771,0.0905,0.1071,0.1108,0.083,0.0901,0.0966,0.0473,0.0492,0.0491,0.0482,0.0564,0.0563,0.0563,0.0562,0.0562,-0.0472,-0.046,-0.0424,-0.0343,-0.0285,-0.0134,-0.0072,0.0078,0.0241,0.0459,0.0602,0.0783,0.0816,0.1062,0.1123,0.1079,0.113,0.094,0.0925,0.0912,0.089,0.0923,0.1074,0.1076,0.1078,0.1079,0.1081,0,-0.044,-0.0359,-0.0286,-0.0156,-0.0022,-0.0027,0.0146,0.0227,0.0448,0.0609,0.0807,0.0817,0.0928,0.0937,0.0944,0.1028,0.087,0.0904,0.061,0.0605,0.06,0.0549,0.065,0.065,0.065,0.0649,0,0,-0.0396,-0.0244,-0.0129,0.0129,0.0203,0.0379,0.0478,0.054,0.0619,0.0738,0.0782,0.0903,0.093,0.0804,0.0784,0.0725,0.0646,0.0674,0.1001,0.0647,0.0642,0.0595,0.0513,0,0,0,0,0]},{"header":{"parameterUnit":"m.s-1","parameterCategory":2,"la1":30.2991,"la2":30.254,"lo1":-89.0895,"lo2":-89.0444,"dy":0.0017,"dx":0.0017,"nx":28,"ny":28,"refTime":"2025-07-22T09:00:00:Z","depth":"2","parameterNumber":3,"parameterNumberName":"V-component_of_CURRENTS"},"data":[0,0,0,0,0,0,0,0,0,0,0,0,0,0,0,0,0,0,0,0,0,0,0,0,0,0,0,0,0,0,0,0,0,0,0,0,0,0,0,0,0,0,0,0,0,0,0,0,0,0,0,0,0,0,0,0,0,0,-0.0156,-0.0156,0,-0.0129,-0.0129,-0.0129,-0.0122,-0.0122,-0.0122,-0.0122,-0.002,-0.0018,-0.0015,0,0,0,0,0,0,0,0,0,0,0,0,0,-0.0245,-0.0243,-0.0156,-0.0156,-0.0155,-0.0129,-0.0129,-0.0129,-0.0122,-0.0122,-0.0122,-0.0122,-0.0021,-0.0018,-0.0015,0,0,0,0,0,0,0,0,0,0,0,0,0,-0.0213,-0.0243,-0.0156,-0.0148,-0.0147,-0.0129,-0.0129,-0.0129,-0.0122,-0.0122,-0.0122,-0.0122,-0.0022,-0.0018,-0.0014,0.0012,0,0,-0.0002,0.0,0,0,0,0,0,0,0,0,-0.0214,-0.0209,-0.015,-0.0148,-0.0147,-0.0128,-0.0123,-0.0077,-0.0122,-0.0133,-0.0122,-0.0122,-0.0048,-0.0042,-0.004,0.0017,0.0021,-0.0001,0.0001,0.0003,0.0004,0,0,0,0,0,0,0,-0.0217,-0.0211,-0.0147,-0.0149,-0.0147,-0.016,-0.0155,-0.0115,-0.0091,-0.0132,-0.0131,-0.0126,-0.0047,-0.0044,-0.0037,0.0023,-0.0001,0.0002,0.0005,0.0006,0.0054,0.0053,0,0,0,0,0,0,-0.0214,-0.0212,-0.0148,-0.0146,-0.018,-0.0158,-0.0152,-0.0135,-0.0093,-0.0086,-0.0126,-0.0125,-0.0051,-0.0042,-0.0034,-0.0042,0.0003,0.0007,0.0009,0.0055,0.0054,0.0052,0,0,0,0,0,0,-0.0216,-0.0208,-0.0149,-0.0179,-0.0172,-0.0156,-0.0137,-0.0134,-0.0131,-0.0088,-0.0081,-0.0124,-0.0051,-0.0039,-0.0016,-0.0036,0.0009,0.0012,0.0057,0.0055,0.0053,-0.0031,0,0,0,0,0,0,-0.0218,-0.0209,-0.0203,-0.0178,-0.017,-0.0137,-0.0136,-0.0134,-0.0127,-0.0126,-0.0084,-0.0075,-0.005,-0.0022,-0.0012,-0.003,0.0016,0.0058,0.0056,0.0054,-0.0027,-0.0035,-0.0043,0,0,0,0,0,-0.0221,-0.0212,-0.0202,-0.0195,-0.0159,-0.0137,-0.0134,-0.0125,-0.0127,-0.0123,-0.011,-0.0076,-0.0029,-0.002,-0.0007,-0.0024,0.0059,0.0056,0.0054,-0.0023,-0.0034,-0.0043,0,0,0,0,0,0,-0.0242,-0.0209,-0.0199,-0.0177,-0.0158,-0.0135,-0.0133,-0.0126,-0.0114,-0.0114,-0.0081,-0.0071,-0.0064,-0.0029,-0.002,-0.002,0.0017,0.0017,-0.0046,-0.0055,-0.0063,-0.0059,0.0019,0,0,0,0,0,-0.0243,-0.0229,-0.0198,-0.0181,-0.0172,-0.0154,-0.0147,-0.0136,-0.0119,-0.0115,-0.0091,-0.0072,-0.0065,-0.0048,-0.0029,-0.0014,0.0033,-0.0021,-0.0029,-0.0036,-0.0026,0.0023,0.0021,0.0044,0.0044,0.0044,0,0,-0.0245,-0.0226,-0.0217,-0.0185,-0.0172,-0.0162,-0.015,-0.0135,-0.0136,-0.0102,-0.0101,-0.0094,-0.0069,-0.0071,-0.0063,-0.0041,-0.0022,-0.0039,-0.0046,-0.0031,0.002,0.0018,0.0017,0.0042,0.0042,0.0042,0,0,-0.0243,-0.0225,-0.0215,-0.0205,-0.0183,-0.0169,-0.0165,-0.0144,-0.0145,-0.0142,-0.0134,-0.014,-0.011,-0.011,-0.0105,-0.0139,-0.0071,-0.0134,-0.0163,-0.0117,-0.0118,-0.0118,-0.0078,-0.0073,-0.0134,-0.0134,-0.0134,0,-0.0244,-0.0222,-0.0209,-0.0204,-0.0188,-0.0174,-0.0156,-0.0165,-0.0144,-0.0129,-0.015,-0.0132,-0.0135,-0.0128,-0.0173,-0.0157,-0.0113,-0.013,-0.0126,-0.0125,-0.0123,-0.0082,-0.0076,-0.0138,-0.0138,-0.0137,-0.0137,0,-0.0234,-0.0225,-0.022,-0.0204,-0.0191,-0.0172,-0.017,-0.0162,-0.0166,-0.0164,-0.0161,-0.018,-0.0153,-0.0188,-0.0204,-0.02,-0.0168,-0.0146,-0.0099,-0.013,-0.0085,-0.0078,-0.0144,-0.0143,-0.0142,-0.0141,0,0,-0.0211,-0.0206,-0.021,-0.0184,-0.0181,-0.015,-0.0164,-0.0136,-0.0103,-0.0148,-0.0106,-0.0188,-0.0182,-0.0178,-0.0193,-0.02,-0.0202,-0.0184,-0.018,-0.0141,-0.0092,-0.0179,-0.0178,-0.0169,-0.0168,-0.0167,-0.007,0,-0.0197,-0.0178,-0.0182,-0.015,-0.0126,-0.0117,-0.0107,-0.0092,-0.0088,-0.0053,-0.0105,-0.0085,-0.0181,-0.0163,-0.0194,-0.0177,-0.0182,-0.023,-0.0069,-0.0065,-0.0135,-0.0173,-0.0205,-0.0131,-0.0062,-0.0061,-0.006,0,-0.019,-0.0166,-0.014,-0.0077,-0.0061,-0.0046,0.0027,0.0038,0.0055,0.0062,0.0048,0.0034,-0.0006,-0.0069,-0.0079,-0.0096,-0.011,-0.0121,-0.0115,-0.0156,-0.0138,-0.0085,-0.0119,-0.0046,-0.0047,-0.0048,-0.0049,0,-0.0168,-0.0131,-0.0095,-0.0086,-0.0032,0.0001,0.0042,0.0073,0.0102,0.0144,0.0167,0.0151,0.0134,0.0121,0.0024,0.0007,0.0029,0.0032,-0.0056,-0.006,-0.0037,-0.0043,0.004,0.004,0.0039,0.0039,0.0039,0,-0.0154,-0.0127,-0.0076,-0.0061,0.0026,0.0052,0.0134,0.0171,0.0218,0.0263,0.0228,0.0242,0.0174,0.0153,0.0099,0.0024,0.0099,-0.0066,-0.0046,-0.0073,-0.0083,0.0036,0.0035,0.0043,0.0042,0.0041,0.0041,0,-0.0171,-0.0148,-0.0089,-0.0009,0.0022,0.0084,0.0169,0.0225,0.0267,0.0326,0.0336,0.0313,0.028,0.0209,0.0189,0.0101,0.0072,0.0031,-0.0019,-0.0011,-0.0055,-0.0062,-0.0017,-0.0019,-0.0021,-0.0023,-0.0024,0,-0.0185,-0.0167,-0.0066,-0.0016,0.0014,0.0101,0.0155,0.023,0.0283,0.0356,0.0384,0.0358,0.031,0.0228,0.0098,0.0023,0.0041,-0.0048,-0.0118,-0.0078,-0.0062,-0.0066,-0.0071,-0.0105,-0.0106,-0.0108,-0.0109,0,-0.0204,-0.0175,-0.0119,-0.0021,0.0049,0.014,0.0225,0.0269,0.0359,0.039,0.043,0.04,0.0274,0.014,-0.0007,-0.0064,-0.004,-0.0087,0.0019,-0.0121,-0.0163,-0.0148,-0.0147,-0.0124,-0.0122,-0.0121,-0.012,-0.012,-0.0225,-0.0179,-0.0106,-0.0005,0.0078,0.0175,0.025,0.0316,0.0384,0.0458,0.044,0.0389,0.0251,0.0004,-0.0099,-0.0204,-0.0192,-0.0204,-0.0197,-0.0188,-0.0252,-0.0299,-0.0295,-0.0295,-0.0294,-0.0294,-0.0294,0,-0.024,-0.0185,-0.009,0.0038,0.0125,0.0185,0.0301,0.0352,0.0418,0.0444,0.0453,0.0272,0.0111,-0.001,-0.0218,-0.0341,-0.0333,-0.0336,-0.0284,-0.0271,-0.026,-0.0325,-0.0388,-0.0388,-0.0388,-0.0388,0,0,-0.0246,-0.0173,-0.01,0.0051,0.0148,0.0282,0.0357,0.0397,0.0422,0.0407,0.0375,0.0325,0.0123,-0.0022,-0.0177,-0.0275,-0.024,-0.0298,-0.0218,-0.0129,-0.0115,-0.0191,-0.0279,0,0,0,0,0]}],[{"header":{"parameterUnit":"m.s-1","parameterCategory":2,"la1":30.2991,"la2":30.254,"lo1":-89.0895,"lo2":-89.0444,"dy":0.0017,"dx":0.0017,"nx":28,"ny":28,"refTime":"2025-07-22T09:00:00:Z","depth":"4","parameterNumber":2,"parameterNumberName":"U-component_of_CURRENTS"},"data":[0,0,0,0,0,0,0,0,0,0,0,0,0,0,0,0,0,0,0,0,0,0,0,0,0,0,0,0,0,0,0,0,0,0,0,0,0,0,0,0,0,0,0,0,0,0,0,0,0,0,0,0,0,0,0,0,0,0,-0.0114,-0.0113,0,-0.0101,-0.01,-0.01,-0.0102,-0.0103,-0.0103,-0.0103,-0.0085,-0.0084,-0.0083,0,0,0,0,0,0,0,0,0,0,0,0,0,-0.0145,-0.0145,-0.0114,-0.0113,-0.0113,-0.0101,-0.01,-0.01,-0.0102,-0.0103,-0.0103,-0.0103,-0.0085,-0.0084,-0.0083,0,0,0,0,0,0,0,0,0,0,0,0,0,-0.0131,-0.0144,-0.0114,-0.0113,-0.0113,-0.0101,-0.01,-0.01,-0.0102,-0.0103,-0.0103,-0.0104,-0.0085,-0.0084,-0.0083,-0.0067,0,0,-0.008,-0.0079,0,0,0,0,0,0,0,0,-0.0132,-0.013,-0.0114,-0.0113,-0.0113,-0.0104,-0.0105,-0.0089,-0.0102,-0.0106,-0.0103,-0.0104,-0.0091,-0.0089,-0.0085,-0.0066,-0.0066,-0.008,-0.0079,-0.0078,-0.0078,0,0,0,0,0,0,0,-0.0133,-0.013,-0.0108,-0.0113,-0.0113,-0.0116,-0.0114,-0.0102,-0.0095,-0.0105,-0.0106,-0.0105,-0.0091,-0.0086,-0.0085,-0.0065,-0.008,-0.0079,-0.0078,-0.0077,-0.0039,-0.0039,0,0,0,0,0,0,-0.0135,-0.0131,-0.0108,-0.0107,-0.0125,-0.0115,-0.0113,-0.0106,-0.0096,-0.0095,-0.0105,-0.0106,-0.0088,-0.0086,-0.0084,-0.0053,-0.0078,-0.0077,-0.0077,-0.0039,-0.0039,-0.0039,0,0,0,0,0,0,-0.0136,-0.0133,-0.0109,-0.012,-0.0117,-0.0114,-0.0106,-0.0106,-0.01,-0.0095,-0.0094,-0.01,-0.0088,-0.0086,-0.0073,-0.0053,-0.0077,-0.0076,-0.004,-0.0039,-0.0039,0.0001,0,0,0,0,0,0,-0.0137,-0.0133,-0.0125,-0.012,-0.0117,-0.0099,-0.0106,-0.0105,-0.01,-0.01,-0.0091,-0.009,-0.0088,-0.0075,-0.0072,-0.0052,-0.0075,-0.004,-0.004,-0.0039,-0.0,0.0003,0.0006,0,0,0,0,0,-0.0138,-0.0124,-0.0124,-0.0121,-0.0107,-0.0099,-0.0097,-0.0096,-0.0099,-0.0094,-0.009,-0.009,-0.0069,-0.0074,-0.0071,-0.0049,-0.0041,-0.004,-0.0039,-0.0002,0.0003,0.0006,0,0,0,0,0,0,-0.0141,-0.0123,-0.0123,-0.0107,-0.0104,-0.01,-0.0091,-0.0093,-0.0085,-0.0083,-0.0083,-0.0082,-0.0067,-0.0066,-0.0071,-0.0039,-0.0056,-0.0054,-0.0028,-0.0024,-0.0021,-0.0001,-0.0074,0,0,0,0,0,-0.0136,-0.012,-0.0111,-0.0102,-0.0095,-0.0093,-0.0088,-0.0088,-0.0083,-0.008,-0.0074,-0.0068,-0.006,-0.0049,-0.0046,-0.0021,-0.0015,-0.0008,-0.0005,-0.0002,0.0015,0.0035,0.0043,-0.0036,-0.0036,-0.0036,0,0,-0.014,-0.0126,-0.012,-0.0102,-0.0096,-0.0076,-0.009,-0.008,-0.0064,-0.0078,-0.0053,-0.0058,-0.0055,-0.0033,-0.0025,-0.0027,0.0022,-0.0001,0.0002,0.0018,0.0037,0.0045,0.0052,-0.0036,-0.0036,-0.0036,0,0,-0.0132,-0.012,-0.01,-0.0086,-0.0071,-0.0066,-0.0062,-0.0052,-0.0046,-0.0028,-0.0036,-0.0027,-0.0013,-0.0002,0.0004,0.0029,0.0032,0.0026,0.0072,0.0091,0.0098,0.0104,0.0118,0.0125,0.0037,0.0037,0.0037,0,-0.0136,-0.0106,-0.0097,-0.0069,-0.0055,-0.0059,-0.0035,-0.0025,-0.0015,-0.0003,-0.0016,0.0006,0.0007,0.0039,0.0049,0.004,0.0048,0.0058,0.0097,0.0103,0.0109,0.0122,0.0129,0.0039,0.0038,0.0038,0.0038,0,-0.011,-0.0082,-0.0069,-0.0031,-0.0016,0.0001,0.0018,0.0033,0.0036,0.0045,0.0067,0.0064,0.008,0.0079,0.0077,0.012,0.011,0.0092,0.0091,0.012,0.013,0.0138,0.0042,0.0041,0.004,0.004,0,0,-0.0126,-0.0062,-0.0057,-0.003,0.0007,0.002,0.0055,0.0084,0.0105,0.0115,0.014,0.0158,0.0153,0.016,0.0151,0.0176,0.022,0.0162,0.0162,0.0183,0.0265,0.0264,0.0271,0.0211,0.0213,0.0214,0.0254,0,-0.0109,-0.0054,-0.0025,0.0023,0.0053,0.0074,0.0105,0.0131,0.0145,0.0167,0.0176,0.019,0.0185,0.0186,0.0215,0.0208,0.0242,0.0211,0.0227,0.0228,0.023,0.0281,0.0219,0.0259,0.0261,0.0262,0.0263,0,-0.0089,-0.0052,0.0003,0.0058,0.0073,0.0106,0.015,0.0175,0.0212,0.0218,0.0243,0.0239,0.0275,0.0254,0.0298,0.0278,0.0289,0.0288,0.0289,0.0284,0.0242,0.0224,0.0276,0.0275,0.0274,0.0273,0.0272,0,-0.0099,-0.0035,0.0009,0.0032,0.0097,0.013,0.0158,0.0199,0.0219,0.0252,0.0261,0.0295,0.0305,0.0328,0.0347,0.032,0.0392,0.0344,0.0359,0.0358,0.0327,0.032,0.0394,0.0394,0.0394,0.0394,0.0394,0,-0.0085,-0.0049,0.0014,0.0048,0.0096,0.0137,0.0183,0.0212,0.0247,0.0277,0.029,0.0315,0.0327,0.0365,0.0372,0.0405,0.0417,0.0389,0.038,0.034,0.0334,0.0332,0.0324,0.0396,0.0395,0.0395,0.0395,0,-0.0084,-0.0047,0.0011,0.0083,0.0103,0.0142,0.0197,0.0221,0.0255,0.0293,0.0303,0.0341,0.039,0.0415,0.0451,0.0437,0.046,0.0473,0.0451,0.0434,0.0399,0.0393,0.0468,0.0469,0.0469,0.0469,0.047,0,-0.0078,-0.0039,0.0034,0.0063,0.0107,0.0158,0.0186,0.0224,0.025,0.0314,0.0333,0.0392,0.0419,0.0472,0.0494,0.052,0.0515,0.0512,0.0443,0.043,0.0412,0.0405,0.0398,0.0471,0.0471,0.0471,0.0471,0,-0.0047,-0.0014,0.0031,0.0077,0.012,0.0155,0.0205,0.0222,0.0271,0.0296,0.0355,0.0386,0.0449,0.0476,0.0519,0.053,0.0496,0.0516,0.0513,0.0448,0.0434,0.0414,0.0407,0.0473,0.0472,0.0472,0.0472,0,-0.0023,0.0002,0.0052,0.0093,0.0127,0.0158,0.0182,0.0226,0.0252,0.0321,0.0349,0.0414,0.0457,0.0486,0.0526,0.0542,0.0509,0.0462,0.0462,0.046,0.044,0.042,0.047,0,0,0,0,0,0.0011,0.0031,0.006,0.0104,0.013,0.0151,0.0194,0.0216,0.0264,0.0298,0.0322,0.0382,0.0435,0.0468,0.0482,0.0516,0.051,0.0527,0.0454,0.0482,0.048,0.0458,0,0,0,0,0,0,0.0027,0.0063,0.0061,0.0095,0.0123,0.0151,0.0178,0.0213,0.0235,0.0287,0.0322,0.0353,0.0415,0.0432,0.0475,0.0485,0.0427,0.0566,0.0564,0.0483,0.0481,0.048,0.0456,0,0,0,0,0]},{"header":{"parameterUnit":"m.s-1","parameterCategory":2,"la1":30.2991,"la2":30.254,"lo1":-89.0895,"lo2":-89.0444,"dy":0.0017,"dx":0.0017,"nx":28,"ny":28,"refTime":"2025-07-22T09:00:00:Z","depth":"4","parameterNumber":3,"parameterNumberName":"V-component_of_CURRENTS"},"data":[0,0,0,0,0,0,0,0,0,0,0,0,0,0,0,0,0,0,0,0,0,0,0,0,0,0,0,0,0,0,0,0,0,0,0,0,0,0,0,0,0,0,0,0,0,0,0,0,0,0,0,0,0,0,0,0,0,0,0.0099,0.0099,0,0.0076,0.0076,0.0075,0.0052,0.0052,0.0051,0.0051,-0.0013,-0.0015,-0.0016,0,0,0,0,0,0,0,0,0,0,0,0,0,0.0073,0.0074,0.0099,0.0099,0.0099,0.0076,0.0076,0.0075,0.0052,0.0052,0.0051,0.0051,-0.0013,-0.0014,-0.0016,0,0,0,0,0,0,0,0,0,0,0,0,0,0.007,0.0075,0.0099,0.0085,0.0084,0.0076,0.0076,0.0075,0.0052,0.0052,0.0051,0.0051,-0.0012,-0.0014,-0.0017,-0.0024,0,0,-0.0023,-0.0024,0,0,0,0,0,0,0,0,0.007,0.0071,0.0087,0.0086,0.0085,0.0067,0.0043,0.004,0.0052,0.0063,0.0051,0.0051,0.0011,0.0007,0.0002,-0.0027,-0.003,-0.0024,-0.0025,-0.0026,-0.0027,0,0,0,0,0,0,0,0.0071,0.0071,0.0089,0.0087,0.0086,0.0063,0.0062,0.0042,0.0037,0.0062,0.006,0.006,0.001,0.0004,0.0,-0.0031,-0.0024,-0.0026,-0.0027,-0.0028,-0.0066,-0.0066,0,0,0,0,0,0,0.0079,0.0072,0.009,0.0088,0.0078,0.0064,0.0063,0.0072,0.0038,0.0034,0.006,0.0059,0.0008,0.0003,-0.0002,0.0023,-0.0026,-0.0028,-0.0029,-0.0066,-0.0066,-0.0066,0,0,0,0,0,0,0.0079,0.0081,0.0091,0.008,0.0079,0.0065,0.0075,0.0072,0.0066,0.0038,0.0032,0.0057,0.0008,0.0001,-0.0023,0.0019,-0.0029,-0.0031,-0.0067,-0.0066,-0.0066,0.0049,0,0,0,0,0,0,0.0078,0.0081,0.0091,0.0081,0.008,0.0097,0.0076,0.0072,0.0066,0.0064,0.0033,0.0027,0.0007,-0.002,-0.0026,0.0015,-0.0033,-0.0067,-0.0067,-0.0066,0.0045,0.0054,0.0061,0,0,0,0,0,0.0077,0.01,0.0092,0.0094,0.0095,0.0098,0.0096,0.0083,0.0066,0.0073,0.0041,0.0028,-0.0019,-0.0022,-0.0029,0.0012,-0.0068,-0.0067,-0.0066,0.0042,0.0052,0.0061,0,0,0,0,0,0,0.009,0.0099,0.0091,0.0113,0.0108,0.0095,0.0104,0.0085,0.0065,0.006,0.0025,0.0017,0.0013,-0.0015,-0.0017,-0.0001,-0.0043,-0.0043,0.0041,0.0051,0.0059,0.0041,-0.0035,0,0,0,0,0,0.0098,0.0119,0.0114,0.013,0.0134,0.0116,0.0114,0.0103,0.0084,0.0076,0.0051,0.0025,0.0011,0.0007,-0.0016,-0.001,-0.006,0.0011,0.0019,0.0026,0.0005,-0.0037,-0.0035,-0.0063,-0.0063,-0.0063,0,0,0.0105,0.0113,0.0123,0.0134,0.0132,0.0155,0.0115,0.012,0.0136,0.0071,0.0082,0.0046,0.0013,0.0024,0.0022,0.0009,0.0012,0.0027,0.0034,0.0008,-0.0036,-0.0034,-0.0031,-0.0063,-0.0063,-0.0063,0,0,0.0145,0.0141,0.018,0.0183,0.0188,0.0179,0.0182,0.017,0.0165,0.016,0.0124,0.0109,0.0083,0.008,0.0072,0.0105,0.0048,0.0099,0.0139,0.0101,0.0103,0.0104,0.0067,0.0064,0.0114,0.0114,0.0115,0,0.0153,0.0188,0.0187,0.0226,0.0216,0.0196,0.0214,0.0228,0.0205,0.0175,0.0177,0.0112,0.0117,0.0108,0.0139,0.0129,0.0078,0.0117,0.0113,0.0113,0.0112,0.0073,0.0068,0.012,0.0119,0.0119,0.0118,0,0.0229,0.0244,0.0265,0.0304,0.0302,0.0307,0.0315,0.0308,0.0286,0.0267,0.023,0.0221,0.0163,0.0197,0.019,0.0187,0.0144,0.0125,0.0095,0.0122,0.0079,0.0072,0.0128,0.0126,0.0124,0.0123,0,0,0.0262,0.0305,0.0309,0.0286,0.0323,0.0299,0.035,0.0328,0.0284,0.0305,0.0239,0.0287,0.0231,0.0217,0.0206,0.0211,0.0214,0.0174,0.0169,0.0148,0.0108,0.0134,0.0128,0.0182,0.018,0.018,0.0091,0,0.0303,0.0335,0.0369,0.0364,0.035,0.0341,0.0354,0.0334,0.0307,0.0248,0.0254,0.0198,0.0258,0.0207,0.0232,0.0184,0.0193,0.0238,0.0073,0.0068,0.0097,0.012,0.0176,0.0085,0.0083,0.0082,0.0081,0,0.0358,0.0348,0.0352,0.029,0.0285,0.0293,0.0207,0.0219,0.0182,0.0151,0.0124,0.0095,0.0108,0.0141,0.0124,0.0135,0.0132,0.0126,0.0121,0.009,0.008,0.0042,0.0066,0.0067,0.0068,0.0069,0.007,0,0.0294,0.0315,0.0281,0.0276,0.0249,0.0222,0.02,0.0164,0.013,0.0069,0.0018,0.0005,-0.0022,-0.0019,0.0027,0.0042,-0.0012,-0.0002,0.0022,0.0022,-0.0026,-0.0027,-0.0022,-0.0022,-0.0022,-0.0021,-0.0021,0,0.028,0.0246,0.0233,0.0203,0.0117,0.0127,0.004,0.0018,-0.0021,-0.0056,-0.0055,-0.008,-0.0065,-0.0073,-0.0036,-0.0023,-0.006,0.0018,0.0,0.0028,0.0034,-0.003,-0.0029,-0.0025,-0.0024,-0.0023,-0.0023,0,0.0205,0.0223,0.0155,0.0106,0.0086,0.0008,-0.0038,-0.0083,-0.0118,-0.016,-0.0176,-0.0174,-0.0167,-0.0145,-0.0153,-0.0106,-0.0103,-0.0088,-0.0065,-0.008,-0.0034,-0.0027,-0.01,-0.01,-0.01,-0.01,-0.01,0,0.0166,0.0131,0.0059,0.0028,0.0008,-0.0076,-0.0103,-0.0136,-0.0145,-0.0182,-0.0183,-0.0212,-0.0188,-0.0184,-0.0163,-0.0145,-0.011,-0.0131,-0.0057,-0.0032,-0.0043,-0.0036,-0.0029,-0.01,-0.01,-0.0099,-0.0099,0,0.0063,0.0049,-0.0006,-0.0057,-0.0093,-0.0142,-0.0167,-0.0187,-0.0181,-0.0221,-0.0177,-0.0172,-0.0174,-0.0152,-0.0152,-0.0119,-0.0136,-0.013,-0.0129,-0.0059,-0.0033,-0.0041,-0.0035,-0.0099,-0.0099,-0.0099,-0.0099,0,-0.0017,-0.0069,-0.0099,-0.0147,-0.017,-0.016,-0.0193,-0.0158,-0.0177,-0.0167,-0.0149,-0.0146,-0.0149,-0.014,-0.0126,-0.0114,-0.0094,-0.0072,-0.0074,-0.0075,-0.002,0.002,-0.0053,0,0,0,0,0,-0.0094,-0.0127,-0.0169,-0.0197,-0.0195,-0.0197,-0.019,-0.019,-0.0182,-0.0131,-0.0133,-0.0107,-0.0091,-0.0102,-0.0082,-0.0138,-0.0116,-0.0117,-0.0098,-0.0097,-0.0097,-0.0033,0,0,0,0,0,0,-0.0142,-0.0193,-0.0188,-0.0195,-0.0201,-0.0191,-0.0179,-0.017,-0.0132,-0.0122,-0.0108,-0.0104,-0.0094,-0.01,-0.0084,-0.0088,-0.0071,-0.0119,-0.0118,-0.0097,-0.0097,-0.0097,-0.0031,0,0,0,0,0]}]]